Time,TemperatureF,DewpointF,PressureIn,WindDirection,WindDirectionDegrees,WindSpeedMPH,WindSpeedGustMPH,Humidity,HourlyPrecipIn,Conditions,Clouds,dailyrainin,SoftwareType,DateUTC
2013-02-22 00:02:00,45.9,38.4,29.93,NNE,27,5.0,7.0,75,0.00,,,0.00,Wunderground v.1.15,2013-02-22 06:02:00,
2013-02-22 00:07:00,45.7,38.0,29.93,NNE,15,9.0,12.0,75,0.00,,,0.00,weatherlink.com 1.10,2013-02-22 06:07:00,
2013-02-22 00:12:00,45.5,37.7,29.93,North,5,7.0,10.0,74,0.00,,,0.00,Wunderground v.1.15,2013-02-22 06:12:00,
2013-02-22 00:17:00,45.4,37.9,29.93,NNE,32,8.0,15.0,75,0.00,,,0.00,Wunderground v.1.15,2013-02-22 06:17:00,
2013-02-22 00:23:00,45.2,37.7,29.93,NE,36,7.0,9.0,75,0.00,,,0.00,Wunderground v.1.15,2013-02-22 06:23:00,
2013-02-22 00:29:00,45.0,37.6,29.93,NNE,29,6.0,10.0,75,0.00,,,0.00,Wunderground v.1.15,2013-02-22 06:29:00,
2013-02-22 00:35:00,44.7,37.3,29.94,NE,36,6.0,8.0,75,0.00,,,0.00,Wunderground v.1.15,2013-02-22 06:35:00,
2013-02-22 00:40:00,44.5,37.4,29.94,NNW,348,6.0,6.0,76,0.00,,,0.00,Wunderground v.1.15,2013-02-22 06:40:00,
2013-02-22 00:46:00,44.3,37.2,29.94,North,5,7.0,11.0,76,0.00,,,0.00,Wunderground v.1.15,2013-02-22 06:46:00,
2013-02-22 00:52:00,44.0,37.3,29.94,NNE,32,7.0,7.0,77,0.00,,,0.00,Wunderground v.1.15,2013-02-22 06:52:00,
2013-02-22 00:58:00,43.8,37.1,29.94,NNE,16,6.0,7.0,77,0.00,,,0.00,Wunderground v.1.15,2013-02-22 06:58:00,
2013-02-22 01:04:00,43.6,36.9,29.94,NNE,27,6.0,8.0,77,0.00,,,0.00,Wunderground v.1.15,2013-02-22 07:04:00,
2013-02-22 01:10:00,43.4,36.7,29.94,North,350,6.0,6.0,77,0.00,,,0.00,Wunderground v.1.15,2013-02-22 07:10:00,
2013-02-22 01:16:00,43.1,36.7,29.95,NNE,24,4.0,6.0,78,0.00,,,0.00,Wunderground v.1.15,2013-02-22 07:16:00,
2013-02-22 01:21:00,42.9,36.5,29.95,NE,37,2.0,6.0,78,0.00,,,0.00,Wunderground v.1.15,2013-02-22 07:21:00,
2013-02-22 01:27:00,42.7,36.6,29.95,NE,48,3.0,6.0,79,0.00,,,0.00,Wunderground v.1.15,2013-02-22 07:27:00,
2013-02-22 01:32:00,42.6,36.5,29.95,NNW,339,4.0,5.0,79,0.00,,,0.00,Wunderground v.1.15,2013-02-22 07:32:00,
2013-02-22 01:38:00,42.4,36.0,29.96,North,355,6.0,9.0,79,0.00,,,0.00,weatherlink.com 1.10,2013-02-22 07:38:00,
2013-02-22 01:44:00,42.3,36.3,29.96,North,10,5.0,5.0,79,0.00,,,0.00,Wunderground v.1.15,2013-02-22 07:44:00,
2013-02-22 01:50:00,42.2,36.2,29.97,North,5,4.0,4.0,79,0.00,,,0.00,Wunderground v.1.15,2013-02-22 07:50:00,
2013-02-22 01:57:00,42.0,36.0,29.97,NE,42,4.0,8.0,79,0.00,,,0.00,Wunderground v.1.15,2013-02-22 07:57:00,
2013-02-22 02:02:00,41.9,35.9,29.98,NNW,331,4.0,6.0,79,0.00,,,0.00,Wunderground v.1.15,2013-02-22 08:02:00,
2013-02-22 02:08:00,41.8,36.1,29.97,North,349,4.0,6.0,80,0.00,,,0.00,Wunderground v.1.15,2013-02-22 08:08:00,
2013-02-22 02:14:00,41.6,35.9,29.98,North,5,5.0,7.0,80,0.00,,,0.00,Wunderground v.1.15,2013-02-22 08:14:00,
2013-02-22 02:20:00,41.5,36.1,29.98,North,355,4.0,5.0,81,0.00,,,0.00,Wunderground v.1.15,2013-02-22 08:20:00,
2013-02-22 02:37:00,40.8,35.0,29.97,North,360,6.0,12.0,79,0.00,,,0.00,weatherlink.com 1.10,2013-02-22 08:37:00,
2013-02-22 02:52:00,40.3,34.0,29.97,NNE,13,10.0,13.0,79,0.00,,,0.00,weatherlink.com 1.10,2013-02-22 08:52:00,
2013-02-22 03:07:00,39.8,34.0,29.98,NNW,327,10.0,12.0,81,0.00,,,0.00,weatherlink.com 1.10,2013-02-22 09:07:00,
2013-02-22 03:22:00,38.8,33.0,29.99,North,360,7.0,14.0,78,0.00,,,0.00,weatherlink.com 1.10,2013-02-22 09:22:00,
2013-02-22 03:37:00,38.1,32.0,29.99,NNE,30,5.0,12.0,80,0.00,,,0.00,weatherlink.com 1.10,2013-02-22 09:37:00,
2013-02-22 03:52:00,37.7,32.0,29.98,NNW,340,5.0,13.0,81,0.00,,,0.00,weatherlink.com 1.10,2013-02-22 09:52:00,
2013-02-22 04:07:00,37.2,32.0,29.99,NNE,18,8.0,15.0,81,0.00,,,0.00,weatherlink.com 1.10,2013-02-22 10:07:00,
2013-02-22 04:22:00,36.8,32.0,30.00,North,360,8.0,16.0,81,0.00,,,0.00,weatherlink.com 1.10,2013-02-22 10:22:00,
2013-02-22 04:37:00,36.2,30.0,30.03,NNE,16,7.0,11.0,79,0.00,,,0.00,weatherlink.com 1.10,2013-02-22 10:37:00,
2013-02-22 04:52:00,35.6,29.0,30.06,North,5,4.0,9.0,78,0.00,,,0.00,weatherlink.com 1.10,2013-02-22 10:52:00,
2013-02-22 05:07:00,34.9,28.0,30.07,NNE,13,4.0,11.0,75,0.00,,,0.00,weatherlink.com 1.10,2013-02-22 11:07:00,
2013-02-22 05:22:00,34.4,27.0,30.08,NNW,347,4.0,10.0,75,0.00,,,0.00,weatherlink.com 1.10,2013-02-22 11:22:00,
2013-02-22 05:37:00,34.3,27.0,30.09,North,350,3.0,7.0,76,0.00,,,0.00,weatherlink.com 1.10,2013-02-22 11:37:00,
2013-02-22 05:52:00,34.2,28.0,30.09,North,350,3.0,8.0,77,0.00,,,0.00,weatherlink.com 1.10,2013-02-22 11:52:00,
2013-02-22 06:07:00,33.8,26.0,30.09,NNW,327,6.0,9.0,74,0.00,,,0.00,weatherlink.com 1.10,2013-02-22 12:07:00,
2013-02-22 06:22:00,33.3,26.0,30.10,NNE,17,4.0,10.0,74,0.00,,,0.00,weatherlink.com 1.10,2013-02-22 12:22:00,
2013-02-22 06:37:00,32.9,25.0,30.09,NNW,327,7.0,12.0,73,0.00,,,0.00,weatherlink.com 1.10,2013-02-22 12:37:00,
2013-02-22 06:54:00,32.6,25.0,30.10,North,5,4.0,14.0,74,0.00,,,0.00,weatherlink.com 1.10,2013-02-22 12:54:00,
2013-02-22 07:08:00,32.5,25.0,30.09,NNE,22,8.0,15.0,75,0.00,,,0.00,weatherlink.com 1.10,2013-02-22 13:08:00,
2013-02-22 07:23:00,32.3,25.0,30.12,North,5,4.0,14.0,75,0.00,,,0.00,weatherlink.com 1.10,2013-02-22 13:23:00,
2013-02-22 07:38:00,32.1,25.0,30.15,NNE,25,3.0,8.0,75,0.00,,,0.00,weatherlink.com 1.10,2013-02-22 13:38:00,
2013-02-22 07:53:00,32.1,25.0,30.15,NNE,26,7.0,7.0,74,0.00,,,0.00,weatherlink.com 1.10,2013-02-22 13:53:00,
2013-02-22 08:08:00,32.2,24.0,30.15,NE,36,3.0,9.0,73,0.00,,,0.00,weatherlink.com 1.10,2013-02-22 14:08:00,
2013-02-22 08:22:00,32.8,24.8,30.16,NE,52,5.0,9.0,72,0.00,,,0.00,Wunderground v.1.15,2013-02-22 14:22:00,
2013-02-22 08:27:00,33.1,25.1,30.16,NNE,15,4.0,9.0,72,0.00,,,0.00,Wunderground v.1.15,2013-02-22 14:27:00,
2013-02-22 08:32:00,33.2,24.8,30.16,NNW,340,4.0,9.0,71,0.00,,,0.00,Wunderground v.1.15,2013-02-22 14:32:00,
2013-02-22 08:38:00,33.2,24.8,30.16,NNW,340,4.0,9.0,71,0.00,,,0.00,Wunderground v.1.15,2013-02-22 14:38:00,
2013-02-22 08:43:00,33.2,24.8,30.16,North,5,5.0,10.0,71,0.00,,,0.00,Wunderground v.1.15,2013-02-22 14:43:00,
2013-02-22 08:49:00,33.2,24.8,30.16,NNW,341,5.0,10.0,71,0.00,,,0.00,Wunderground v.1.15,2013-02-22 14:49:00,
2013-02-22 08:55:00,33.4,25.0,30.16,NNW,338,4.0,9.0,71,0.00,,,0.00,Wunderground v.1.15,2013-02-22 14:55:00,
2013-02-22 09:00:00,33.8,24.7,30.17,NNE,12,5.0,5.0,69,0.00,,,0.00,Wunderground v.1.15,2013-02-22 15:00:00,
2013-02-22 09:06:00,34.1,24.6,30.16,NE,42,4.0,5.0,68,0.00,,,0.00,Wunderground v.1.15,2013-02-22 15:06:00,
2013-02-22 09:11:00,34.2,24.7,30.16,NE,38,4.0,4.0,68,0.00,,,0.00,Wunderground v.1.15,2013-02-22 15:11:00,
2013-02-22 09:16:00,34.8,24.6,30.16,NNE,18,4.0,6.0,66,0.00,,,0.00,Wunderground v.1.15,2013-02-22 15:16:00,
2013-02-22 09:21:00,35.0,24.4,30.16,North,360,5.0,7.0,65,0.00,,,0.00,Wunderground v.1.15,2013-02-22 15:21:00,
2013-02-22 09:26:00,34.7,24.1,30.17,NE,53,5.0,9.0,65,0.00,,,0.00,Wunderground v.1.15,2013-02-22 15:26:00,
2013-02-22 09:31:00,34.8,24.2,30.17,North,360,4.0,5.0,65,0.00,,,0.00,Wunderground v.1.15,2013-02-22 15:31:00,
2013-02-22 09:36:00,34.6,23.3,30.17,NNW,342,4.0,6.0,63,0.00,,,0.00,Wunderground v.1.15,2013-02-22 15:36:00,
2013-02-22 09:42:00,34.5,22.8,30.16,NNE,21,5.0,10.0,62,0.00,,,0.00,Wunderground v.1.15,2013-02-22 15:42:00,
2013-02-22 09:47:00,34.6,22.9,30.16,NNE,21,6.0,10.0,62,0.00,,,0.00,Wunderground v.1.15,2013-02-22 15:47:00,
2013-02-22 09:53:00,35.3,24.0,30.16,North,9,6.0,6.0,63,0.00,,,0.00,Wunderground v.1.15,2013-02-22 15:53:00,
2013-02-22 09:58:00,35.5,24.9,30.16,NNE,19,5.0,8.0,65,0.00,,,0.00,Wunderground v.1.15,2013-02-22 15:58:00,
2013-02-22 10:03:00,36.1,25.1,30.15,NNE,22,5.0,9.0,64,0.00,,,0.00,Wunderground v.1.15,2013-02-22 16:03:00,
2013-02-22 10:08:00,36.3,24.9,30.15,North,351,5.0,10.0,63,0.00,,,0.00,Wunderground v.1.15,2013-02-22 16:08:00,
2013-02-22 10:13:00,36.1,23.5,30.15,NNE,19,5.0,6.0,60,0.00,,,0.00,Wunderground v.1.15,2013-02-22 16:13:00,
2013-02-22 10:19:00,36.4,23.0,30.15,NNE,22,6.0,10.0,58,0.00,,,0.00,Wunderground v.1.15,2013-02-22 16:19:00,
2013-02-22 10:24:00,36.6,24.0,30.15,North,355,7.0,9.0,60,0.00,,,0.00,Wunderground v.1.15,2013-02-22 16:24:00,
2013-02-22 10:29:00,37.1,23.7,30.14,North,5,6.0,6.0,58,0.00,,,0.00,Wunderground v.1.15,2013-02-22 16:29:00,
2013-02-22 10:35:00,36.9,23.5,30.15,NE,37,6.0,6.0,58,0.00,,,0.00,Wunderground v.1.15,2013-02-22 16:35:00,
2013-02-22 10:40:00,37.3,24.3,30.15,North,11,6.0,6.0,59,0.00,,,0.00,Wunderground v.1.15,2013-02-22 16:40:00,
2013-02-22 10:45:00,37.2,23.4,30.14,North,11,6.0,10.0,57,0.00,,,0.00,Wunderground v.1.15,2013-02-22 16:45:00,
2013-02-22 10:51:00,37.3,23.9,30.14,North,9,7.0,7.0,58,0.00,,,0.00,Wunderground v.1.15,2013-02-22 16:51:00,
2013-02-22 10:57:00,37.5,22.3,30.14,NNE,19,7.0,10.0,54,0.00,,,0.00,Wunderground v.1.15,2013-02-22 16:57:00,
2013-02-22 11:02:00,37.6,22.4,30.14,North,5,7.0,11.0,54,0.00,,,0.00,Wunderground v.1.15,2013-02-22 17:02:00,
2013-02-22 11:07:00,37.6,22.9,30.14,NNW,338,7.0,11.0,55,0.00,,,0.00,Wunderground v.1.15,2013-02-22 17:07:00,
2013-02-22 11:13:00,37.9,23.6,30.14,NNE,31,6.0,13.0,56,0.00,,,0.00,Wunderground v.1.15,2013-02-22 17:13:00,
2013-02-22 11:19:00,37.8,23.5,30.14,NE,48,7.0,13.0,56,0.00,,,0.00,Wunderground v.1.15,2013-02-22 17:19:00,
2013-02-22 11:25:00,38.6,24.7,30.14,NW,326,7.0,10.0,57,0.00,,,0.00,Wunderground v.1.15,2013-02-22 17:25:00,
2013-02-22 11:30:00,39.6,24.7,30.13,WNW,288,6.0,6.0,55,0.00,,,0.00,Wunderground v.1.15,2013-02-22 17:30:00,
2013-02-22 11:36:00,39.2,23.9,30.13,NNW,341,6.0,9.0,54,0.00,,,0.00,Wunderground v.1.15,2013-02-22 17:36:00,
2013-02-22 11:42:00,39.1,23.4,30.12,NW,323,6.0,6.0,53,0.00,,,0.00,Wunderground v.1.15,2013-02-22 17:42:00,
2013-02-22 11:47:00,39.4,23.7,30.13,NE,34,6.0,9.0,53,0.00,,,0.00,Wunderground v.1.15,2013-02-22 17:47:00,
2013-02-22 11:53:00,39.5,23.3,30.12,North,350,6.0,8.0,52,0.00,,,0.00,Wunderground v.1.15,2013-02-22 17:53:00,
2013-02-22 11:59:00,40.6,23.9,30.12,North,355,6.0,8.0,51,0.00,,,0.00,Wunderground v.1.15,2013-02-22 17:59:00,
2013-02-22 12:05:00,40.1,22.9,30.12,North,349,6.0,6.0,50,0.00,,,0.00,Wunderground v.1.15,2013-02-22 18:05:00,
2013-02-22 12:10:00,40.2,23.5,30.12,NW,319,6.0,7.0,51,0.00,,,0.00,Wunderground v.1.15,2013-02-22 18:10:00,
2013-02-22 12:15:00,40.4,24.1,30.11,NNE,16,6.0,7.0,52,0.00,,,0.00,Wunderground v.1.15,2013-02-22 18:15:00,
2013-02-22 12:20:00,40.9,24.1,30.12,NNW,336,6.0,11.0,51,0.00,,,0.00,Wunderground v.1.15,2013-02-22 18:20:00,
2013-02-22 12:25:00,40.4,23.7,30.11,NNE,21,6.0,11.0,51,0.00,,,0.00,Wunderground v.1.15,2013-02-22 18:25:00,
2013-02-22 12:31:00,40.1,23.4,30.11,NE,38,7.0,7.0,51,0.00,,,0.00,Wunderground v.1.15,2013-02-22 18:31:00,
2013-02-22 12:36:00,39.8,23.6,30.11,WNW,292,7.0,7.0,52,0.00,,,0.00,Wunderground v.1.15,2013-02-22 18:36:00,
2013-02-22 12:42:00,39.7,23.5,30.11,NE,42,6.0,8.0,52,0.00,,,0.00,Wunderground v.1.15,2013-02-22 18:42:00,
2013-02-22 12:48:00,39.7,23.5,30.10,NNW,327,7.0,9.0,52,0.00,,,0.00,Wunderground v.1.15,2013-02-22 18:48:00,
2013-02-22 12:53:00,41.0,24.0,30.10,WNW,294,6.0,14.0,52,0.00,,,0.00,weatherlink.com 1.10,2013-02-22 18:53:00,
2013-02-22 12:59:00,41.8,25.0,30.10,NNE,25,5.0,7.0,51,0.00,,,0.00,Wunderground v.1.15,2013-02-22 18:59:00,
2013-02-22 13:04:00,41.8,24.5,30.09,NNW,348,5.0,8.0,50,0.00,,,0.00,Wunderground v.1.15,2013-02-22 19:04:00,
2013-02-22 13:10:00,42.5,24.0,30.09,NW,320,4.0,14.0,49,0.00,,,0.00,weatherlink.com 1.10,2013-02-22 19:10:00,
2013-02-22 13:15:00,42.3,25.0,30.09,North,355,6.0,8.0,50,0.00,,,0.00,Wunderground v.1.15,2013-02-22 19:15:00,
2013-02-22 13:21:00,43.4,25.5,30.08,ENE,61,5.0,5.0,49,0.00,,,0.00,Wunderground v.1.15,2013-02-22 19:21:00,
2013-02-22 13:27:00,42.7,24.8,30.08,NNE,23,5.0,7.0,49,0.00,,,0.00,Wunderground v.1.15,2013-02-22 19:27:00,
2013-02-22 13:32:00,42.3,25.0,30.08,NW,316,6.0,7.0,50,0.00,,,0.00,Wunderground v.1.15,2013-02-22 19:32:00,
2013-02-22 13:38:00,44.0,26.5,30.07,NNE,13,5.0,7.0,50,0.00,,,0.00,Wunderground v.1.15,2013-02-22 19:38:00,
2013-02-22 13:43:00,44.0,25.0,30.07,NNE,25,5.0,5.0,47,0.00,,,0.00,Wunderground v.1.15,2013-02-22 19:43:00,
2013-02-22 13:49:00,43.6,25.2,30.07,NNW,328,6.0,8.0,48,0.00,,,0.00,Wunderground v.1.15,2013-02-22 19:49:00,
2013-02-22 13:55:00,44.2,25.0,30.06,NE,36,6.0,13.0,47,0.00,,,0.00,weatherlink.com 1.10,2013-02-22 19:55:00,
2013-02-22 14:00:00,44.0,25.5,30.06,North,11,6.0,6.0,48,0.00,,,0.00,Wunderground v.1.15,2013-02-22 20:00:00,
2013-02-22 14:06:00,43.7,25.3,30.05,NE,49,6.0,6.0,48,0.00,,,0.00,Wunderground v.1.15,2013-02-22 20:06:00,
2013-02-22 14:11:00,43.8,25.9,30.05,NNE,25,6.0,11.0,49,0.00,,,0.00,Wunderground v.1.15,2013-02-22 20:11:00,
2013-02-22 14:17:00,44.2,27.2,30.05,NNW,338,6.0,11.0,51,0.00,,,0.00,Wunderground v.1.15,2013-02-22 20:17:00,
2013-02-22 14:23:00,44.3,27.3,30.04,NNE,17,5.0,7.0,51,0.00,,,0.00,Wunderground v.1.15,2013-02-22 20:23:00,
2013-02-22 14:29:00,45.7,27.6,30.05,NNE,24,5.0,9.0,49,0.00,,,0.00,Wunderground v.1.15,2013-02-22 20:29:00,
2013-02-22 14:35:00,45.7,27.6,30.04,WNW,302,5.0,8.0,49,0.00,,,0.00,Wunderground v.1.15,2013-02-22 20:35:00,
2013-02-22 14:41:00,45.4,27.0,30.04,NNE,21,3.0,11.0,49,0.00,,,0.00,weatherlink.com 1.10,2013-02-22 20:41:00,
2013-02-22 14:46:00,46.1,28.0,30.04,NW,325,5.0,10.0,49,0.00,,,0.00,Wunderground v.1.15,2013-02-22 20:46:00,
2013-02-22 14:52:00,46.0,27.9,30.04,North,5,5.0,7.0,49,0.00,,,0.00,Wunderground v.1.15,2013-02-22 20:52:00,
2013-02-22 14:58:00,47.1,28.4,30.03,NNE,19,5.0,8.0,48,0.00,,,0.00,Wunderground v.1.15,2013-02-22 20:58:00,
2013-02-22 15:03:00,47.0,27.8,30.03,NNE,28,5.0,8.0,47,0.00,,,0.00,Wunderground v.1.15,2013-02-22 21:03:00,
2013-02-22 15:09:00,46.9,28.2,30.03,North,355,6.0,10.0,48,0.00,,,0.00,Wunderground v.1.15,2013-02-22 21:09:00,
2013-02-22 15:15:00,47.5,27.7,30.03,North,355,6.0,9.0,46,0.00,,,0.00,Wunderground v.1.15,2013-02-22 21:15:00,
2013-02-22 15:20:00,47.4,28.2,30.03,WNW,294,6.0,6.0,47,0.00,,,0.00,Wunderground v.1.15,2013-02-22 21:20:00,
2013-02-22 15:26:00,48.1,28.0,30.03,NW,322,2.0,12.0,46,0.00,,,0.00,weatherlink.com 1.10,2013-02-22 21:26:00,
2013-02-22 15:31:00,48.3,27.9,30.02,NNE,29,5.0,9.0,45,0.00,,,0.00,Wunderground v.1.15,2013-02-22 21:31:00,
2013-02-22 15:37:00,48.3,28.5,30.02,NE,53,5.0,9.0,46,0.00,,,0.00,Wunderground v.1.15,2013-02-22 21:37:00,
2013-02-22 15:43:00,49.1,28.7,30.02,NE,52,5.0,11.0,45,0.00,,,0.00,Wunderground v.1.15,2013-02-22 21:43:00,
2013-02-22 15:49:00,48.5,28.1,30.02,NNW,338,5.0,11.0,45,0.00,,,0.00,Wunderground v.1.15,2013-02-22 21:49:00,
2013-02-22 15:54:00,48.3,28.5,30.03,NE,53,5.0,6.0,46,0.00,,,0.00,Wunderground v.1.15,2013-02-22 21:54:00,
2013-02-22 16:00:00,48.4,28.5,30.02,North,360,5.0,5.0,46,0.00,,,0.00,Wunderground v.1.15,2013-02-22 22:00:00,
2013-02-22 16:06:00,48.1,28.3,30.02,NNE,15,5.0,11.0,46,0.00,,,0.00,Wunderground v.1.15,2013-02-22 22:06:00,
2013-02-22 16:11:00,48.4,28.0,30.02,NNE,17,6.0,8.0,45,0.00,,,0.00,Wunderground v.1.15,2013-02-22 22:11:00,
2013-02-22 16:17:00,48.3,27.9,30.02,North,11,5.0,8.0,45,0.00,,,0.00,Wunderground v.1.15,2013-02-22 22:17:00,
2013-02-22 16:23:00,48.1,27.7,30.02,NNE,16,6.0,9.0,45,0.00,,,0.00,Wunderground v.1.15,2013-02-22 22:23:00,
2013-02-22 16:28:00,48.3,28.5,30.03,ENE,59,5.0,9.0,46,0.00,,,0.00,Wunderground v.1.15,2013-02-22 22:28:00,
2013-02-22 16:33:00,48.0,27.6,30.03,NNE,28,5.0,7.0,45,0.00,,,0.00,Wunderground v.1.15,2013-02-22 22:33:00,
2013-02-22 16:39:00,47.9,28.1,30.03,NNE,30,5.0,7.0,46,0.00,,,0.00,Wunderground v.1.15,2013-02-22 22:39:00,
2013-02-22 16:45:00,48.1,27.7,30.03,North,355,4.0,5.0,45,0.00,,,0.00,Wunderground v.1.15,2013-02-22 22:45:00,
2013-02-22 16:50:00,48.5,27.6,30.03,NNW,335,4.0,4.0,44,0.00,,,0.00,Wunderground v.1.15,2013-02-22 22:50:00,
2013-02-22 16:55:00,48.4,27.5,30.03,NE,39,5.0,6.0,44,0.00,,,0.00,Wunderground v.1.15,2013-02-22 22:55:00,
2013-02-22 17:00:00,48.3,27.4,30.03,NNW,334,5.0,5.0,44,0.00,,,0.00,Wunderground v.1.15,2013-02-22 23:00:00,
2013-02-22 17:05:00,48.1,28.3,30.03,NE,36,6.0,8.0,46,0.00,,,0.00,Wunderground v.1.15,2013-02-22 23:05:00,
2013-02-22 17:10:00,48.0,27.6,30.03,NE,43,5.0,6.0,45,0.00,,,0.00,Wunderground v.1.15,2013-02-22 23:10:00,
2013-02-22 17:16:00,47.8,28.0,30.03,North,360,4.0,8.0,46,0.00,,,0.00,Wunderground v.1.15,2013-02-22 23:16:00,
2013-02-22 17:21:00,47.8,28.0,30.03,NE,38,4.0,4.0,46,0.00,,,0.00,Wunderground v.1.15,2013-02-22 23:21:00,
2013-02-22 17:27:00,47.9,28.0,30.03,NNE,19,5.0,8.0,46,0.00,,,0.00,weatherlink.com 1.10,2013-02-22 23:27:00,
2013-02-22 17:34:00,47.6,27.8,30.03,NNE,13,5.0,5.0,46,0.00,,,0.00,Wunderground v.1.15,2013-02-22 23:34:00,
2013-02-22 17:40:00,47.3,28.6,30.04,NNE,20,4.0,6.0,48,0.00,,,0.00,Wunderground v.1.15,2013-02-22 23:40:00,
2013-02-22 17:45:00,47.2,28.5,30.04,North,5,3.0,7.0,48,0.00,,,0.00,Wunderground v.1.15,2013-02-22 23:45:00,
2013-02-22 17:51:00,47.0,28.3,30.03,NE,42,4.0,7.0,48,0.00,,,0.00,Wunderground v.1.15,2013-02-22 23:51:00,
2013-02-22 17:56:00,46.9,28.0,30.04,NNE,22,4.0,9.0,48,0.00,,,0.00,weatherlink.com 1.10,2013-02-22 23:56:00,
2013-02-22 18:02:00,46.7,28.5,30.04,NE,38,4.0,4.0,49,0.00,,,0.00,Wunderground v.1.15,2013-02-23 00:02:00,
2013-02-22 18:08:00,46.5,28.3,30.04,NNE,19,4.0,5.0,49,0.00,,,0.00,Wunderground v.1.15,2013-02-23 00:08:00,
2013-02-22 18:13:00,46.4,28.3,30.05,NNE,30,4.0,4.0,49,0.00,,,0.00,Wunderground v.1.15,2013-02-23 00:13:00,
2013-02-22 18:19:00,46.3,28.7,30.06,North,9,3.0,4.0,50,0.00,,,0.00,Wunderground v.1.15,2013-02-23 00:19:00,
2013-02-22 18:24:00,46.2,28.6,30.06,NNE,30,3.0,5.0,50,0.00,,,0.00,Wunderground v.1.15,2013-02-23 00:24:00,
2013-02-22 18:30:00,46.0,28.4,30.07,NNE,24,2.0,2.0,50,0.00,,,0.00,Wunderground v.1.15,2013-02-23 00:30:00,
2013-02-22 18:35:00,45.9,28.8,30.07,NE,53,2.0,3.0,51,0.00,,,0.00,Wunderground v.1.15,2013-02-23 00:35:00,
2013-02-22 18:41:00,45.7,28.0,30.07,NNE,30,2.0,6.0,51,0.00,,,0.00,weatherlink.com 1.10,2013-02-23 00:41:00,
2013-02-22 18:47:00,45.5,28.4,30.08,NNE,23,3.0,5.0,51,0.00,,,0.00,Wunderground v.1.15,2013-02-23 00:47:00,
2013-02-22 18:52:00,45.4,28.3,30.08,NE,40,2.0,3.0,51,0.00,,,0.00,Wunderground v.1.15,2013-02-23 00:52:00,
2013-02-22 18:57:00,45.2,28.6,30.08,ENE,57,2.0,3.0,52,0.00,,,0.00,Wunderground v.1.15,2013-02-23 00:57:00,
2013-02-22 19:02:00,45.0,28.9,30.08,NE,44,2.0,2.0,53,0.00,,,0.00,Wunderground v.1.15,2013-02-23 01:02:00,
2013-02-22 19:07:00,44.6,29.0,30.09,NNE,27,1.0,3.0,54,0.00,,,0.00,Wunderground v.1.15,2013-02-23 01:07:00,
2013-02-22 19:13:00,44.2,28.6,30.09,NE,41,2.0,4.0,54,0.00,,,0.00,Wunderground v.1.15,2013-02-23 01:13:00,
2013-02-22 19:19:00,44.0,28.9,30.09,NNE,24,2.0,4.0,55,0.00,,,0.00,Wunderground v.1.15,2013-02-23 01:19:00,
2013-02-22 19:24:00,43.8,28.7,30.10,NNE,18,3.0,4.0,55,0.00,,,0.00,Wunderground v.1.15,2013-02-23 01:24:00,
2013-02-22 19:30:00,43.7,29.0,30.10,NE,42,3.0,3.0,56,0.00,,,0.00,Wunderground v.1.15,2013-02-23 01:30:00,
2013-02-22 19:36:00,43.6,28.9,30.10,NNE,26,4.0,5.0,56,0.00,,,0.00,Wunderground v.1.15,2013-02-23 01:36:00,
2013-02-22 19:41:00,43.4,28.7,30.11,NE,49,4.0,4.0,56,0.00,,,0.00,Wunderground v.1.15,2013-02-23 01:41:00,
2013-02-22 19:46:00,43.3,28.6,30.11,NNE,24,3.0,4.0,56,0.00,,,0.00,Wunderground v.1.15,2013-02-23 01:46:00,
2013-02-22 19:51:00,43.1,28.9,30.11,NNE,19,3.0,3.0,57,0.00,,,0.00,Wunderground v.1.15,2013-02-23 01:51:00,
2013-02-22 19:56:00,42.9,28.7,30.11,NNE,32,3.0,4.0,57,0.00,,,0.00,Wunderground v.1.15,2013-02-23 01:56:00,
2013-02-22 20:02:00,42.8,28.6,30.12,NNE,27,3.0,4.0,57,0.00,,,0.00,Wunderground v.1.15,2013-02-23 02:02:00,
2013-02-22 20:08:00,42.7,28.1,30.12,NE,36,3.0,5.0,56,0.00,,,0.00,Wunderground v.1.15,2013-02-23 02:08:00,
2013-02-22 20:14:00,42.5,27.9,30.12,NNE,24,3.0,4.0,56,0.00,,,0.00,Wunderground v.1.15,2013-02-23 02:14:00,
2013-02-22 20:19:00,42.4,28.2,30.12,NNE,13,3.0,6.0,57,0.00,,,0.00,Wunderground v.1.15,2013-02-23 02:19:00,
2013-02-22 20:25:00,42.3,28.1,30.12,NNE,15,4.0,5.0,57,0.00,,,0.00,Wunderground v.1.15,2013-02-23 02:25:00,
2013-02-22 20:31:00,42.1,27.9,30.12,NNE,16,4.0,4.0,57,0.00,,,0.00,Wunderground v.1.15,2013-02-23 02:31:00,
2013-02-22 20:37:00,42.0,27.9,30.12,NE,39,4.0,6.0,57,0.00,,,0.00,Wunderground v.1.15,2013-02-23 02:37:00,
2013-02-22 20:42:00,41.8,28.1,30.13,NNE,22,4.0,5.0,58,0.00,,,0.00,Wunderground v.1.15,2013-02-23 02:42:00,
2013-02-22 20:47:00,41.7,28.0,30.13,NNE,32,4.0,5.0,58,0.00,,,0.00,Wunderground v.1.15,2013-02-23 02:47:00,
2013-02-22 20:53:00,41.6,27.9,30.12,NE,43,4.0,5.0,58,0.00,,,0.00,Wunderground v.1.15,2013-02-23 02:53:00,
2013-02-22 20:59:00,41.5,27.8,30.12,NNE,19,4.0,5.0,58,0.00,,,0.00,Wunderground v.1.15,2013-02-23 02:59:00,
2013-02-22 21:04:00,41.4,27.7,30.12,ENE,61,4.0,6.0,58,0.00,,,0.00,Wunderground v.1.15,2013-02-23 03:04:00,
2013-02-22 21:09:00,41.2,27.9,30.12,NE,44,4.0,6.0,59,0.00,,,0.00,Wunderground v.1.15,2013-02-23 03:09:00,
2013-02-22 21:15:00,41.0,27.8,30.12,NE,48,3.0,4.0,59,0.00,,,0.00,Wunderground v.1.15,2013-02-23 03:15:00,
2013-02-22 21:20:00,40.8,27.6,30.11,ENE,58,3.0,3.0,59,0.00,,,0.00,Wunderground v.1.15,2013-02-23 03:20:00,
2013-02-22 21:25:00,40.5,27.7,30.11,NE,39,3.0,3.0,60,0.00,,,0.00,Wunderground v.1.15,2013-02-23 03:25:00,
2013-02-22 21:31:00,40.1,27.7,30.11,ENE,67,3.0,4.0,61,0.00,,,0.00,Wunderground v.1.15,2013-02-23 03:31:00,
2013-02-22 21:36:00,39.7,27.7,30.11,NE,38,3.0,4.0,62,0.00,,,0.00,Wunderground v.1.15,2013-02-23 03:36:00,
2013-02-22 21:42:00,39.4,28.0,30.11,NE,39,2.0,5.0,63,0.00,,,0.00,weatherlink.com 1.10,2013-02-23 03:42:00,
2013-02-22 21:48:00,39.3,27.7,30.11,East,82,3.0,6.0,63,0.00,,,0.00,Wunderground v.1.15,2013-02-23 03:48:00,
2013-02-22 21:54:00,39.4,27.8,30.10,NE,40,3.0,3.0,63,0.00,,,0.00,Wunderground v.1.15,2013-02-23 03:54:00,
2013-02-22 22:00:00,39.3,27.7,30.11,NE,50,3.0,3.0,63,0.00,,,0.00,Wunderground v.1.15,2013-02-23 04:00:00,
2013-02-22 22:06:00,39.6,27.6,30.11,North,5,4.0,7.0,62,0.00,,,0.00,Wunderground v.1.15,2013-02-23 04:06:00,
2013-02-22 22:11:00,39.8,27.0,30.11,NNE,14,4.0,4.0,60,0.00,,,0.00,Wunderground v.1.15,2013-02-23 04:11:00,
2013-02-22 22:17:00,39.9,27.1,30.11,NE,39,4.0,7.0,60,0.00,,,0.00,Wunderground v.1.15,2013-02-23 04:17:00,
2013-02-22 22:23:00,39.8,27.0,30.12,NNE,29,5.0,8.0,60,0.00,,,0.00,Wunderground v.1.15,2013-02-23 04:23:00,
2013-02-22 22:29:00,39.7,27.3,30.11,NNE,33,5.0,8.0,61,0.00,,,0.00,Wunderground v.1.15,2013-02-23 04:29:00,
2013-02-22 22:34:00,39.6,27.2,30.11,NNE,20,5.0,7.0,61,0.00,,,0.00,Wunderground v.1.15,2013-02-23 04:34:00,
2013-02-22 22:42:00,39.4,27.0,30.12,NE,41,4.0,9.0,61,0.00,,,0.00,weatherlink.com 1.10,2013-02-23 04:42:00,
2013-02-22 22:56:00,39.1,27.0,30.12,NNE,13,2.0,8.0,62,0.00,,,0.00,weatherlink.com 1.10,2013-02-23 04:56:00,
2013-02-22 23:11:00,38.9,27.0,30.12,NNE,32,4.0,8.0,62,0.00,,,0.00,weatherlink.com 1.10,2013-02-23 05:11:00,
2013-02-22 23:26:00,39.1,27.0,30.12,North,360,6.0,10.0,62,0.00,,,0.00,weatherlink.com 1.10,2013-02-23 05:26:00,
2013-02-22 23:41:00,38.9,27.0,30.11,NNE,22,8.0,12.0,63,0.00,,,0.00,weatherlink.com 1.10,2013-02-23 05:41:00,
2013-02-22 23:56:00,38.7,27.0,30.11,NE,39,4.0,11.0,64,0.00,,,0.00,weatherlink.com 1.10,2013-02-23 05:56:00,